Starlink 30269

operational
NORAD ID: 57528 Int'l Des: 2023-115 Owner: SPXS Country: US Constellation: starlink
LEOCIRCULAR

关于 Starlink 30269

正在加载描述...

实时位置

正在加载3D地球...

即将过境

高度历史

Altitude vs Time

uPlot chart will show altitude changes over time

两行轨道根数

1 57528U 23115H 25353.29958314 .00000407 00000-0 45199-4 0 9991
2 57528 43.0048 81.4008 0002048 279.9012 80.1599 15.02534793130222
Epoch: Dec 19, 2025 • Age: 13 hours

当前状态

高度 558.8 km
速度 7.58 km/s
星下点 10.46°N, 151.94°W
发射日期 Aug 8, 2023
运行时间 2.3 years
类型 internet

技术详情

分类 Payload
质量 730.00 kg
干质量 700.00 kg
总质量 730.00 kg
长度 0.30 m
直径 4.10 m
跨度 29.00 m
形状 Box + pan
制造商 SPXS
平台类型 Starlink V2M
阶段状态 In Orbit
所有者/国家 SPXS/US

大型星座

Loading constellations...